Location: Hylvaty SDH
(49.9612°N, 16.4057°E)
Time: 11:09:00
(UTC+01:00)

Tiros 1 - Pass Details

Date: 09 October 2020
Orbit: 630 x 663 km, 48.4° (Epoch: 28 October)

Event Time Altitude Azimuth Distance (km) Brightness Sun altitude
Rises 13:13:09 0° 251° (WSW) 2,928 10.9 33.1°
Reaches altitude 10° 13:15:29 10° 249° (WSW) 2,026 10.2 33.0°
Maximum altitude 13:20:06 65° 168° (SSE) 708 8.5 32.9°
Drops below altitude 10° 13:24:47 10° 87° (E) 2,051 9.7 32.7°
Sets 13:27:09 0° 84° (E) 2,968 10.4 32.6°
